Погода в Атильо

Пуэрто-Рико     18°29′10″N   66°49′29″W
темп.,
°C
ветер,
м/с
пор.,
м/с
влажн.,
%
обл.,
%
осадки,
мм/ч
давл.,
гПа
погр.,
м
14 апреля, ср
ср1423:00+23вюв1185100 0.0 1015193
02:00+22юз0187100 0.0 1013162
05:00+22юз1187100 0.0 1013208
08:00+24сз11798 0.0 1015387
11:00+27с5465100 0.0 1016872
14:00+26с657031 0.0 1014856
17:00+25с5575100 0.1 1013870
20:00+23ссв447094 0.2 1015478
15 апреля, чт
чт1523:00+23св34669 0.0 1015512
02:00+21всв23700 0.0 1014483
05:00+21вюв23754 0.0 1014444
08:00+23всв44630 0.0 1016923
11:00+26св54560 0.0 10161020
14:00+26св65550 0.0 1014664
17:00+25св65591 0.0 1013699
20:00+23в56691 0.0 1015416
16 апреля, пт
пт1623:00+21вюв447396 0.0 1015275
02:00+21юв23750 0.0 1014157
05:00+20ююв12765 0.0 1014112
08:00+24вюв22654 0.0 1015275
11:00+27св556328 0.0 1015924
14:00+25св668044 0.2 1014476
17:00+25св568318 1.7 1013464
20:00+24всв56896 2.0 1015244
17 апреля, сб
сб1723:00+24юв2388100 0.1 1016150
02:00+23ююв228636 0.1 101482
05:00+23ююв228552 0.0 101580
08:00+25ююв117672 0.0 1016218
11:00+29ссв4458100 0.0 10161018
14:00+27св6571100 0.0 1015564
17:00+27ссв337011 0.2 1015591
20:00+25з238423 0.3 101793
18 апреля, вс
вс1823:00+24ю34840 0.0 1017118
02:00+23ююв22855 0.0 1016111
05:00+22ююв22840 0.0 1016106
08:00+25вюв35720 0.0 1018359
11:00+29св77610 0.0 10171102
14:00+28св1010682 0.0 1016572
17:00+27всв897246 0.2 1015646
20:00+25вюв567754 0.3 1017176